Time,TemperatureF,DewpointF,PressureIn,WindDirection,WindDirectionDegrees,WindSpeedMPH,WindSpeedGustMPH,Humidity,HourlyPrecipIn,Conditions,Clouds,dailyrainin,SoftwareType,DateUTC
2013-04-17 00:00:00,44.3,36.8,30.02,NW,315,0.0,0.7,75,0.00,,,0.00,WUHU216HW,2013-04-17 07:00:00,
2013-04-17 00:05:00,44.3,37.2,30.02,NW,315,0.5,0.7,76,0.00,,,0.00,WUHU216HW,2013-04-17 07:05:00,
2013-04-17 00:10:00,44.1,37.0,30.03,NW,315,0.0,0.7,76,0.00,,,0.00,WUHU216HW,2013-04-17 07:10:00,
2013-04-17 00:15:00,43.9,36.8,30.03,NW,315,0.0,0.4,76,0.00,,,0.00,WUHU216HW,2013-04-17 07:15:00,
2013-04-17 00:20:00,43.9,36.8,30.03,NW,315,0.0,0.0,76,0.00,,,0.00,WUHU216HW,2013-04-17 07:20:00,
2013-04-17 00:25:00,43.7,37.0,30.03,NW,315,0.0,0.0,77,0.00,,,0.00,WUHU216HW,2013-04-17 07:25:00,
2013-04-17 00:30:00,43.7,37.0,30.03,NW,315,0.0,0.0,77,0.00,,,0.00,WUHU216HW,2013-04-17 07:30:00,
2013-04-17 00:35:00,43.6,36.8,30.03,NW,315,0.0,0.0,77,0.00,,,0.00,WUHU216HW,2013-04-17 07:35:00,
2013-04-17 00:40:00,43.4,36.6,30.03,NW,315,0.0,0.0,77,0.00,,,0.00,WUHU216HW,2013-04-17 07:40:00,
2013-04-17 00:45:00,43.2,36.5,30.03,NW,315,0.0,0.0,77,0.00,,,0.00,WUHU216HW,2013-04-17 07:45:00,
2013-04-17 00:50:00,43.0,36.3,30.03,NW,315,0.0,0.0,77,0.00,,,0.00,WUHU216HW,2013-04-17 07:50:00,
2013-04-17 00:55:00,42.8,36.1,30.04,WNW,293,0.0,0.0,77,0.00,,,0.00,WUHU216HW,2013-04-17 07:55:00,
2013-04-17 01:00:00,42.7,35.9,30.04,WNW,293,0.0,0.0,77,0.00,,,0.00,WUHU216HW,2013-04-17 08:00:00,
2013-04-17 01:05:00,42.5,35.7,30.04,WNW,293,0.0,0.0,77,0.00,,,0.00,WUHU216HW,2013-04-17 08:05:00,
2013-04-17 01:10:00,42.3,35.9,30.04,WNW,293,0.0,0.0,78,0.00,,,0.00,WUHU216HW,2013-04-17 08:10:00,
2013-04-17 01:15:00,42.1,35.7,30.04,WNW,293,0.0,0.0,78,0.00,,,0.00,WUHU216HW,2013-04-17 08:15:00,
2013-04-17 01:20:00,42.1,35.7,30.04,WNW,293,0.4,0.4,78,0.00,,,0.00,WUHU216HW,2013-04-17 08:20:00,
2013-04-17 01:25:00,41.8,35.6,30.04,NW,315,0.7,1.1,79,0.00,,,0.00,WUHU216HW,2013-04-17 08:25:00,
2013-04-17 01:30:00,41.8,35.6,30.04,NW,315,0.7,1.1,79,0.00,,,0.00,WUHU216HW,2013-04-17 08:30:00,
2013-04-17 01:35:00,41.6,35.5,30.04,NW,315,0.0,1.1,79,0.00,,,0.00,WUHU216HW,2013-04-17 08:35:00,
2013-04-17 01:40:00,41.4,35.3,30.04,NW,315,0.0,1.1,79,0.00,,,0.00,WUHU216HW,2013-04-17 08:40:00,
2013-04-17 01:45:00,41.4,35.6,30.05,NW,315,0.0,0.0,80,0.00,,,0.00,WUHU216HW,2013-04-17 08:45:00,
2013-04-17 01:50:00,41.2,35.5,30.05,NW,315,0.0,0.0,80,0.00,,,0.00,WUHU216HW,2013-04-17 08:50:00,
2013-04-17 01:55:00,41.0,35.3,30.05,NW,315,0.0,0.0,80,0.00,,,0.00,WUHU216HW,2013-04-17 08:55:00,
2013-04-17 02:00:00,40.9,35.1,30.05,NW,315,0.0,0.0,80,0.00,,,0.00,WUHU216HW,2013-04-17 09:00:00,
2013-04-17 02:05:00,40.9,35.1,30.05,NW,315,0.0,0.0,80,0.00,,,0.00,WUHU216HW,2013-04-17 09:05:00,
2013-04-17 02:10:00,40.7,34.9,30.04,NW,315,0.4,0.7,80,0.00,,,0.00,WUHU216HW,2013-04-17 09:10:00,
2013-04-17 02:15:00,40.7,35.3,30.04,NW,315,0.2,0.7,81,0.00,,,0.00,WUHU216HW,2013-04-17 09:15:00,
2013-04-17 02:19:00,40.7,35.3,30.04,NW,315,0.0,0.2,81,0.00,,,0.00,WUHU216HW,2013-04-17 09:19:00,
2013-04-17 02:25:00,40.5,35.1,30.04,NW,315,0.0,0.0,81,0.00,,,0.00,WUHU216HW,2013-04-17 09:25:00,
2013-04-17 02:30:00,40.3,34.9,30.05,NW,315,0.0,0.0,81,0.00,,,0.00,WUHU216HW,2013-04-17 09:30:00,
2013-04-17 02:35:00,40.1,34.7,30.04,NW,315,0.0,0.0,81,0.00,,,0.00,WUHU216HW,2013-04-17 09:35:00,
2013-04-17 02:40:00,40.0,34.3,30.05,NW,315,0.0,0.0,80,0.00,,,0.00,WUHU216HW,2013-04-17 09:40:00,
2013-04-17 02:45:00,40.0,34.3,30.04,NW,315,0.0,0.0,80,0.00,,,0.00,WUHU216HW,2013-04-17 09:45:00,
2013-04-17 02:50:00,39.8,34.1,30.04,NW,315,0.0,0.0,80,0.00,,,0.00,WUHU216HW,2013-04-17 09:50:00,
2013-04-17 02:55:00,39.6,34.0,30.04,NW,315,0.0,0.0,80,0.00,,,0.00,WUHU216HW,2013-04-17 09:55:00,
2013-04-17 03:00:00,39.6,34.0,30.04,NW,315,0.3,0.7,80,0.00,,,0.00,WUHU216HW,2013-04-17 10:00:00,
2013-04-17 03:05:00,39.4,33.9,30.04,NW,315,0.0,0.7,80,0.00,,,0.00,WUHU216HW,2013-04-17 10:05:00,
2013-04-17 03:09:00,39.2,33.7,30.04,NW,315,0.0,0.0,80,0.00,,,0.00,WUHU216HW,2013-04-17 10:09:00,
2013-04-17 03:14:00,39.2,33.9,30.04,NW,315,0.0,0.0,81,0.00,,,0.00,WUHU216HW,2013-04-17 10:14:00,
2013-04-17 03:20:00,39.2,33.9,30.04,NW,315,0.0,0.0,81,0.00,,,0.00,WUHU216HW,2013-04-17 10:20:00,
2013-04-17 03:24:00,39.1,33.8,30.04,NW,315,0.0,0.0,81,0.00,,,0.00,WUHU216HW,2013-04-17 10:24:00,
2013-04-17 03:29:00,39.1,33.8,30.04,NW,315,0.0,0.0,81,0.00,,,0.00,WUHU216HW,2013-04-17 10:29:00,
2013-04-17 03:34:00,39.1,33.8,30.05,NW,315,0.0,0.0,81,0.00,,,0.00,WUHU216HW,2013-04-17 10:34:00,
2013-04-17 03:39:00,39.1,33.8,30.05,NW,315,0.0,0.0,81,0.00,,,0.00,WUHU216HW,2013-04-17 10:39:00,
2013-04-17 03:44:00,38.9,33.6,30.05,NW,315,0.0,0.0,81,0.00,,,0.00,WUHU216HW,2013-04-17 10:44:00,
2013-04-17 03:49:00,38.9,33.6,30.05,NW,315,0.0,0.0,81,0.00,,,0.00,WUHU216HW,2013-04-17 10:49:00,
2013-04-17 03:54:00,38.7,33.4,30.05,NW,315,0.0,0.0,81,0.00,,,0.00,WUHU216HW,2013-04-17 10:54:00,
2013-04-17 03:59:00,38.7,33.7,30.05,NW,315,0.6,0.9,82,0.00,,,0.00,WUHU216HW,2013-04-17 10:59:00,
2013-04-17 04:04:00,38.5,33.5,30.05,NW,315,0.0,0.9,82,0.00,,,0.00,WUHU216HW,2013-04-17 11:04:00,
2013-04-17 04:09:00,38.5,33.5,30.05,NW,315,0.0,0.0,82,0.00,,,0.00,WUHU216HW,2013-04-17 11:09:00,
2013-04-17 04:14:00,38.3,33.3,30.05,NW,315,0.0,0.0,82,0.00,,,0.00,WUHU216HW,2013-04-17 11:14:00,
2013-04-17 04:19:00,38.2,33.1,30.06,NW,315,0.0,0.0,82,0.00,,,0.00,WUHU216HW,2013-04-17 11:19:00,
2013-04-17 04:24:00,38.2,33.1,30.05,NW,315,0.0,0.0,82,0.00,,,0.00,WUHU216HW,2013-04-17 11:24:00,
2013-04-17 04:30:00,38.0,32.9,30.05,NW,315,0.0,0.0,82,0.00,,,0.00,WUHU216HW,2013-04-17 11:30:00,
2013-04-17 04:34:00,37.8,32.8,30.05,NW,315,0.0,0.0,82,0.00,,,0.00,WUHU216HW,2013-04-17 11:34:00,
2013-04-17 04:39:00,37.8,32.8,30.05,NW,315,0.0,0.0,82,0.00,,,0.00,WUHU216HW,2013-04-17 11:39:00,
2013-04-17 04:44:00,37.8,33.1,30.05,NW,315,0.7,0.7,83,0.00,,,0.00,WUHU216HW,2013-04-17 11:44:00,
2013-04-17 04:49:00,37.8,33.1,30.06,NW,315,0.8,1.1,83,0.00,,,0.00,WUHU216HW,2013-04-17 11:49:00,
2013-04-17 04:54:00,37.8,33.1,30.06,NW,315,0.0,1.1,83,0.00,,,0.00,WUHU216HW,2013-04-17 11:54:00,
2013-04-17 04:59:00,37.8,33.1,30.06,NW,315,0.0,0.2,83,0.00,,,0.00,WUHU216HW,2013-04-17 11:59:00,
2013-04-17 05:04:00,37.6,33.0,30.06,South,180,0.0,0.0,83,0.00,,,0.00,WUHU216HW,2013-04-17 12:04:00,
2013-04-17 05:09:00,37.4,32.8,30.06,South,180,0.0,0.0,83,0.00,,,0.00,WUHU216HW,2013-04-17 12:09:00,
2013-04-17 05:15:00,37.3,32.6,30.07,South,180,0.0,0.0,83,0.00,,,0.00,WUHU216HW,2013-04-17 12:15:00,
2013-04-17 05:19:00,37.3,32.6,30.07,South,180,0.0,0.0,83,0.00,,,0.00,WUHU216HW,2013-04-17 12:19:00,
2013-04-17 05:24:00,37.3,32.6,30.07,South,180,0.0,0.0,83,0.00,,,0.00,WUHU216HW,2013-04-17 12:24:00,
2013-04-17 05:29:00,37.1,32.4,30.07,South,180,0.0,0.0,83,0.00,,,0.00,WUHU216HW,2013-04-17 12:29:00,
2013-04-17 05:34:00,37.1,32.7,30.07,South,180,0.0,0.0,84,0.00,,,0.00,WUHU216HW,2013-04-17 12:34:00,
2013-04-17 05:39:00,37.1,32.7,30.07,South,180,0.0,0.0,84,0.00,,,0.00,WUHU216HW,2013-04-17 12:39:00,
2013-04-17 05:44:00,37.3,32.9,30.08,ESE,113,0.2,1.1,84,0.00,,,0.00,WUHU216HW,2013-04-17 12:44:00,
2013-04-17 05:49:00,37.4,33.0,30.08,ESE,113,0.0,1.1,84,0.00,,,0.00,WUHU216HW,2013-04-17 12:49:00,
2013-04-17 05:54:00,37.4,33.0,30.08,ESE,113,0.0,0.0,84,0.00,,,0.00,WUHU216HW,2013-04-17 12:54:00,
2013-04-17 05:59:00,37.6,33.2,30.08,ESE,113,0.0,0.0,84,0.00,,,0.00,WUHU216HW,2013-04-17 12:59:00,
2013-04-17 06:04:00,37.8,33.4,30.08,ESE,113,0.0,0.0,84,0.00,,,0.00,WUHU216HW,2013-04-17 13:04:00,
2013-04-17 06:09:00,37.8,33.4,30.08,WSW,248,0.6,0.7,84,0.00,,,0.00,WUHU216HW,2013-04-17 13:09:00,
2013-04-17 06:14:00,38.0,33.8,30.08,WSW,248,0.0,0.7,85,0.00,,,0.00,WUHU216HW,2013-04-17 13:14:00,
2013-04-17 06:19:00,38.2,34.0,30.08,WSW,248,0.3,0.4,85,0.00,,,0.00,WUHU216HW,2013-04-17 13:19:00,
2013-04-17 06:24:00,38.5,34.7,30.08,WSW,248,0.0,0.4,86,0.00,,,0.00,WUHU216HW,2013-04-17 13:24:00,
2013-04-17 06:29:00,38.9,34.7,30.08,WSW,248,0.0,0.0,85,0.00,,,0.00,WUHU216HW,2013-04-17 13:29:00,
2013-04-17 06:34:00,39.1,34.9,30.09,WSW,241,0.4,0.4,85,0.00,,,0.00,WUHU216HW,2013-04-17 13:34:00,
2013-04-17 06:39:00,39.2,35.1,30.09,SSW,203,0.0,0.4,85,0.00,,,0.00,WUHU216HW,2013-04-17 13:39:00,
2013-04-17 06:44:00,39.2,35.1,30.09,SW,225,0.0,0.4,85,0.00,,,0.00,WUHU216HW,2013-04-17 13:44:00,
2013-04-17 06:49:00,39.4,35.3,30.09,SW,225,0.5,0.9,85,0.00,,,0.00,WUHU216HW,2013-04-17 13:49:00,
2013-04-17 06:54:00,39.6,35.5,30.09,WSW,248,0.2,0.9,85,0.00,,,0.00,WUHU216HW,2013-04-17 13:54:00,
2013-04-17 06:59:00,39.8,35.7,30.09,SSW,203,0.0,0.9,85,0.00,,,0.00,WUHU216HW,2013-04-17 13:59:00,
2013-04-17 07:04:00,39.8,35.7,30.10,WSW,248,0.3,0.9,85,0.00,,,0.00,WUHU216HW,2013-04-17 14:04:00,
2013-04-17 07:09:00,40.0,35.8,30.10,WSW,248,0.0,0.4,85,0.00,,,0.00,WUHU216HW,2013-04-17 14:09:00,
2013-04-17 07:14:00,40.9,36.6,30.10,WSW,248,0.0,0.2,85,0.00,,,0.00,WUHU216HW,2013-04-17 14:14:00,
2013-04-17 07:19:00,42.5,38.5,30.10,West,270,0.9,0.9,86,0.00,,,0.00,WUHU216HW,2013-04-17 14:19:00,
2013-04-17 07:24:00,43.2,39.2,30.10,SW,229,0.5,1.1,86,0.00,,,0.00,WUHU216HW,2013-04-17 14:24:00,
2013-04-17 07:29:00,43.0,38.5,30.11,SW,228,0.7,1.6,84,0.00,,,0.00,WUHU216HW,2013-04-17 14:29:00,
2013-04-17 07:34:00,42.7,38.2,30.11,WSW,250,1.0,2.5,84,0.00,,,0.00,WUHU216HW,2013-04-17 14:34:00,
2013-04-17 07:39:00,42.5,38.0,30.11,SSE,158,0.4,2.5,84,0.00,,,0.00,WUHU216HW,2013-04-17 14:39:00,
2013-04-17 07:44:00,42.3,37.8,30.11,WSW,248,0.9,1.8,84,0.00,,,0.00,WUHU216HW,2013-04-17 14:44:00,
2013-04-17 07:49:00,42.1,37.6,30.12,SSE,154,2.0,2.7,84,0.00,,,0.00,WUHU216HW,2013-04-17 14:49:00,
2013-04-17 07:54:00,41.8,37.5,30.12,South,174,0.6,2.7,85,0.00,,,0.00,WUHU216HW,2013-04-17 14:54:00,
2013-04-17 07:59:00,41.9,37.7,30.12,SSW,201,0.6,2.0,85,0.00,,,0.00,WUHU216HW,2013-04-17 14:59:00,
2013-04-17 08:04:00,41.9,37.7,30.12,SSE,158,1.6,2.0,85,0.00,,,0.00,WUHU216HW,2013-04-17 15:04:00,
2013-04-17 08:09:00,42.1,38.2,30.12,SE,139,1.7,2.5,86,0.00,,,0.00,WUHU216HW,2013-04-17 15:09:00,
2013-04-17 08:14:00,42.7,38.4,30.12,SSW,196,1.0,2.5,85,0.00,,,0.00,WUHU216HW,2013-04-17 15:14:00,
2013-04-17 08:19:00,43.2,39.0,30.13,WSW,248,0.6,2.5,85,0.00,,,0.00,WUHU216HW,2013-04-17 15:19:00,
2013-04-17 08:24:00,43.6,39.3,30.13,WSW,241,1.5,2.5,85,0.00,,,0.00,WUHU216HW,2013-04-17 15:24:00,
2013-04-17 08:29:00,43.9,39.7,30.13,WSW,248,1.6,2.5,85,0.00,,,0.00,WUHU216HW,2013-04-17 15:29:00,
2013-04-17 08:34:00,44.6,40.4,30.13,South,191,0.8,2.7,85,0.00,,,0.00,WUHU216HW,2013-04-17 15:34:00,
2013-04-17 08:39:00,45.0,40.5,30.13,WSW,250,0.5,2.7,84,0.00,,,0.00,WUHU216HW,2013-04-17 15:39:00,
2013-04-17 08:44:00,45.2,40.7,30.13,SW,226,0.6,1.8,84,0.00,,,0.00,WUHU216HW,2013-04-17 15:44:00,
2013-04-17 08:49:00,45.5,40.7,30.13,WSW,248,1.1,1.8,83,0.00,,,0.00,WUHU216HW,2013-04-17 15:49:00,
2013-04-17 08:54:00,45.9,41.0,30.13,West,260,0.8,1.8,83,0.00,,,0.00,WUHU216HW,2013-04-17 15:54:00,
2013-04-17 08:59:00,46.4,41.6,30.13,WSW,248,1.8,2.5,83,0.00,,,0.00,WUHU216HW,2013-04-17 15:59:00,
2013-04-17 09:04:00,46.8,41.6,30.13,WSW,247,1.5,2.7,82,0.00,,,0.00,WUHU216HW,2013-04-17 16:04:00,
2013-04-17 09:09:00,47.2,41.9,30.13,WSW,252,1.4,2.7,82,0.00,,,0.00,WUHU216HW,2013-04-17 16:09:00,
2013-04-17 09:14:00,47.7,42.1,30.13,SSE,156,1.3,2.0,81,0.00,,,0.00,WUHU216HW,2013-04-17 16:14:00,
2013-04-17 09:19:00,48.6,43.3,30.13,SSE,160,0.9,2.5,82,0.00,,,0.00,WUHU216HW,2013-04-17 16:19:00,
2013-04-17 09:24:00,49.9,44.6,30.13,WSW,248,1.1,2.7,82,0.00,,,0.00,WUHU216HW,2013-04-17 16:24:00,
2013-04-17 09:29:00,50.8,44.8,30.13,West,270,2.2,4.0,80,0.00,,,0.00,WUHU216HW,2013-04-17 16:29:00,
2013-04-17 09:34:00,52.2,46.3,30.13,SW,225,1.8,4.0,80,0.00,,,0.00,WUHU216HW,2013-04-17 16:34:00,
2013-04-17 09:39:00,53.6,47.3,30.13,West,263,2.3,4.0,79,0.00,,,0.00,WUHU216HW,2013-04-17 16:39:00,
2013-04-17 09:44:00,54.4,46.6,30.13,WSW,255,2.7,4.0,75,0.00,,,0.00,WUHU216HW,2013-04-17 16:44:00,
2013-04-17 09:49:00,54.5,46.5,30.13,South,173,1.9,3.6,74,0.00,,,0.00,WUHU216HW,2013-04-17 16:49:00,
2013-04-17 09:54:00,54.7,46.3,30.13,NNW,338,2.5,3.1,73,0.00,,,0.00,WUHU216HW,2013-04-17 16:54:00,
2013-04-17 09:59:00,54.7,46.3,30.13,SSE,160,2.4,5.4,73,0.00,,,0.00,WUHU216HW,2013-04-17 16:59:00,
2013-04-17 10:04:00,54.5,45.7,30.13,SW,225,1.6,5.4,72,0.00,,,0.00,WUHU216HW,2013-04-17 17:04:00,
2013-04-17 10:09:00,53.6,44.5,30.13,SW,221,1.3,3.8,71,0.00,,,0.00,WUHU216HW,2013-04-17 17:09:00,
2013-04-17 10:14:00,52.9,44.2,30.13,SSE,158,2.5,3.4,72,0.00,,,0.00,WUHU216HW,2013-04-17 17:14:00,
2013-04-17 10:19:00,52.6,43.8,30.13,SE,135,2.0,2.7,72,0.00,,,0.00,WUHU216HW,2013-04-17 17:19:00,
2013-04-17 10:24:00,52.0,43.3,30.13,WSW,257,1.2,3.6,72,0.00,,,0.00,WUHU216HW,2013-04-17 17:24:00,
2013-04-17 10:29:00,52.2,43.5,30.13,SSE,158,0.7,3.6,72,0.00,,,0.00,WUHU216HW,2013-04-17 17:29:00,
2013-04-17 10:34:00,52.6,43.8,30.13,SSE,167,1.7,2.5,72,0.00,,,0.00,WUHU216HW,2013-04-17 17:34:00,
2013-04-17 10:39:00,52.7,43.7,30.13,SSE,154,3.1,5.4,71,0.00,,,0.00,WUHU216HW,2013-04-17 17:39:00,
2013-04-17 10:44:00,53.5,45.0,30.13,SSW,203,1.6,5.4,73,0.00,,,0.00,WUHU216HW,2013-04-17 17:44:00,
2013-04-17 10:49:00,54.5,45.7,30.13,WSW,248,2.2,4.0,72,0.00,,,0.00,WUHU216HW,2013-04-17 17:49:00,
2013-04-17 10:54:00,55.6,46.5,30.13,SW,229,2.5,4.0,71,0.00,,,0.00,WUHU216HW,2013-04-17 17:54:00,
2013-04-17 10:59:00,56.2,46.2,30.13,SW,225,3.4,4.0,69,0.00,,,0.00,WUHU216HW,2013-04-17 17:59:00,
2013-04-17 11:04:00,56.0,46.0,30.13,SSW,203,1.1,4.0,69,0.00,,,0.00,WUHU216HW,2013-04-17 18:04:00,
2013-04-17 11:09:00,55.6,45.3,30.13,SSW,207,1.4,3.4,68,0.00,,,0.00,WUHU216HW,2013-04-17 18:09:00,
2013-04-17 11:14:00,54.7,44.4,30.13,SE,135,1.1,4.0,68,0.00,,,0.00,WUHU216HW,2013-04-17 18:14:00,
2013-04-17 11:19:00,54.7,44.7,30.13,WSW,248,3.6,4.3,69,0.00,,,0.00,WUHU216HW,2013-04-17 18:19:00,
2013-04-17 11:24:00,55.4,45.1,30.13,SW,228,1.3,4.3,68,0.00,,,0.00,WUHU216HW,2013-04-17 18:24:00,
2013-04-17 11:29:00,55.8,45.4,30.13,NW,315,0.9,3.6,68,0.00,,,0.00,WUHU216HW,2013-04-17 18:29:00,
2013-04-17 11:34:00,56.3,45.9,30.13,West,259,1.7,3.1,68,0.00,,,0.00,WUHU216HW,2013-04-17 18:34:00,
2013-04-17 11:39:00,56.7,46.3,30.13,SE,146,1.4,3.1,68,0.00,,,0.00,WUHU216HW,2013-04-17 18:39:00,
2013-04-17 11:44:00,56.9,45.6,30.13,WSW,248,2.5,3.4,66,0.00,,,0.00,WUHU216HW,2013-04-17 18:44:00,
2013-04-17 11:49:00,57.1,46.2,30.13,West,260,2.8,4.3,67,0.00,,,0.00,WUHU216HW,2013-04-17 18:49:00,
2013-04-17 11:54:00,57.8,46.4,30.13,SW,232,2.0,4.3,66,0.00,,,0.00,WUHU216HW,2013-04-17 18:54:00,
2013-04-17 11:59:00,58.0,46.3,30.12,WNW,282,1.8,4.3,65,0.00,,,0.00,WUHU216HW,2013-04-17 18:59:00,
2013-04-17 12:04:00,58.3,46.2,30.12,West,275,2.6,3.6,64,0.00,,,0.00,WUHU216HW,2013-04-17 19:04:00,
2013-04-17 12:09:00,58.5,45.9,30.12,WSW,239,3.1,3.8,63,0.00,,,0.00,WUHU216HW,2013-04-17 19:09:00,
2013-04-17 12:14:00,58.3,45.7,30.12,ENE,68,3.4,3.8,63,0.00,,,0.00,WUHU216HW,2013-04-17 19:14:00,
2013-04-17 12:19:00,58.5,46.4,30.12,SSW,198,1.8,3.4,64,0.00,,,0.00,WUHU216HW,2013-04-17 19:19:00,
2013-04-17 12:24:00,58.7,46.5,30.12,SE,135,1.8,4.3,64,0.00,,,0.00,WUHU216HW,2013-04-17 19:24:00,
2013-04-17 12:29:00,58.7,46.1,30.12,WSW,248,1.8,4.3,63,0.00,,,0.00,WUHU216HW,2013-04-17 19:29:00,
2013-04-17 12:34:00,58.7,46.1,30.12,SW,222,2.6,4.7,63,0.00,,,0.00,WUHU216HW,2013-04-17 19:34:00,
2013-04-17 12:39:00,58.9,46.3,30.12,ESE,105,2.4,4.7,63,0.00,,,0.00,WUHU216HW,2013-04-17 19:39:00,
2013-04-17 12:44:00,59.0,46.5,30.12,South,180,1.6,4.5,63,0.00,,,0.00,WUHU216HW,2013-04-17 19:44:00,
2013-04-17 12:49:00,59.0,46.5,30.12,West,274,2.5,5.4,63,0.00,,,0.00,WUHU216HW,2013-04-17 19:49:00,
2013-04-17 12:54:00,59.4,46.8,30.12,West,270,4.0,5.4,63,0.00,,,0.00,WUHU216HW,2013-04-17 19:54:00,
2013-04-17 12:59:00,59.6,47.0,30.12,SSE,149,2.9,4.0,63,0.00,,,0.00,WUHU216HW,2013-04-17 19:59:00,
2013-04-17 13:04:00,59.9,47.4,30.11,SSE,149,2.3,3.8,63,0.00,,,0.00,WUHU216HW,2013-04-17 20:04:00,
2013-04-17 13:09:00,60.1,47.5,30.11,East,90,2.5,3.8,63,0.00,,,0.00,WUHU216HW,2013-04-17 20:09:00,
2013-04-17 13:15:00,60.5,47.4,30.11,East,100,2.1,5.6,62,0.00,,,0.00,WUHU216HW,2013-04-17 20:15:00,
2013-04-17 13:19:00,60.8,47.4,30.11,South,179,1.5,5.6,61,0.00,,,0.00,WUHU216HW,2013-04-17 20:19:00,
2013-04-17 13:24:00,60.3,46.4,30.11,WSW,238,2.7,4.0,60,0.00,,,0.00,WUHU216HW,2013-04-17 20:24:00,
2013-04-17 13:29:00,60.3,46.9,30.10,West,270,3.6,6.3,61,0.00,,,0.00,WUHU216HW,2013-04-17 20:29:00,
2013-04-17 13:34:00,60.1,46.3,30.10,WNW,287,1.8,6.3,60,0.00,,,0.00,WUHU216HW,2013-04-17 20:34:00,
2013-04-17 13:40:00,60.5,47.1,30.10,SSE,158,3.8,5.1,61,0.00,,,0.00,WUHU216HW,2013-04-17 20:40:00,
2013-04-17 13:45:00,61.0,47.2,30.10,SE,127,2.1,5.1,60,0.00,,,0.00,WUHU216HW,2013-04-17 20:45:00,
2013-04-17 13:50:00,61.6,47.2,30.10,SE,135,3.8,4.7,59,0.00,,,0.00,WUHU216HW,2013-04-17 20:50:00,
2013-04-17 13:55:00,61.6,46.6,30.09,ENE,65,2.1,4.7,58,0.00,,,0.00,WUHU216HW,2013-04-17 20:55:00,
2013-04-17 14:00:00,61.7,46.8,30.09,SSE,158,3.4,4.7,58,0.00,,,0.00,WUHU216HW,2013-04-17 21:00:00,
2013-04-17 14:05:00,61.7,46.4,30.09,SW,224,1.6,4.7,57,0.00,,,0.00,WUHU216HW,2013-04-17 21:05:00,
2013-04-17 14:10:00,61.2,45.4,30.09,NNW,345,2.2,4.3,56,0.00,,,0.00,WUHU216HW,2013-04-17 21:10:00,
2013-04-17 14:15:00,61.0,45.2,30.09,East,90,1.8,3.6,56,0.00,,,0.00,WUHU216HW,2013-04-17 21:15:00,
2013-04-17 14:20:00,60.5,44.7,30.09,ENE,73,2.4,3.6,56,0.00,,,0.00,WUHU216HW,2013-04-17 21:20:00,
2013-04-17 14:25:00,60.1,44.4,30.09,ENE,68,2.2,3.4,56,0.00,,,0.00,WUHU216HW,2013-04-17 21:25:00,
2013-04-17 14:30:00,60.1,44.8,30.09,East,90,2.5,3.1,57,0.00,,,0.00,WUHU216HW,2013-04-17 21:30:00,
2013-04-17 14:35:00,60.5,44.7,30.09,ESE,113,2.2,3.4,56,0.00,,,0.00,WUHU216HW,2013-04-17 21:35:00,
2013-04-17 14:39:00,60.3,43.6,30.09,West,270,1.6,4.7,54,0.00,,,0.00,WUHU216HW,2013-04-17 21:39:00,
2013-04-17 14:45:00,60.1,43.8,30.09,NNE,28,0.8,4.7,55,0.00,,,0.00,WUHU216HW,2013-04-17 21:45:00,
2013-04-17 14:50:00,59.9,43.7,30.09,ESE,113,2.5,2.5,55,0.00,,,0.00,WUHU216HW,2013-04-17 21:50:00,
2013-04-17 14:55:00,59.6,42.8,30.09,NNE,15,1.1,2.5,54,0.00,,,0.00,WUHU216HW,2013-04-17 21:55:00,
2013-04-17 15:00:00,59.4,42.8,30.09,NNW,346,1.0,2.5,54,0.00,,,0.00,WUHU216HW,2013-04-17 22:00:00,
2013-04-17 15:05:00,59.2,42.6,30.09,ENE,77,0.7,1.8,54,0.00,,,0.00,WUHU216HW,2013-04-17 22:05:00,
2013-04-17 15:10:00,59.4,43.2,30.09,WSW,248,3.6,3.6,55,0.00,,,0.00,WUHU216HW,2013-04-17 22:10:00,
2013-04-17 15:15:00,59.0,43.3,30.09,NW,308,3.4,5.6,56,0.00,,,0.00,WUHU216HW,2013-04-17 22:15:00,
2013-04-17 15:20:00,58.7,43.9,30.09,SW,225,4.7,5.6,58,0.00,,,0.00,WUHU216HW,2013-04-17 22:20:00,
2013-04-17 15:24:00,58.5,43.7,30.09,West,279,2.0,6.9,58,0.00,,,0.00,WUHU216HW,2013-04-17 22:24:00,
2013-04-17 15:30:00,59.0,46.0,30.09,West,266,1.0,6.9,62,0.00,,,0.00,WUHU216HW,2013-04-17 22:30:00,
2013-04-17 15:35:00,60.1,46.3,30.08,SW,225,1.6,3.4,60,0.00,,,0.00,WUHU216HW,2013-04-17 22:35:00,
2013-04-17 15:39:00,59.9,45.6,30.08,NW,315,2.0,2.9,59,0.00,,,0.00,WUHU216HW,2013-04-17 22:39:00,
2013-04-17 15:45:00,59.9,45.6,30.08,West,260,3.2,6.3,59,0.00,,,0.00,WUHU216HW,2013-04-17 22:45:00,
2013-04-17 15:50:00,59.9,45.6,30.08,WNW,285,2.7,6.3,59,0.00,,,0.00,WUHU216HW,2013-04-17 22:50:00,
2013-04-17 15:55:00,60.3,46.0,30.08,West,270,2.5,6.0,59,0.00,,,0.00,WUHU216HW,2013-04-17 22:55:00,
2013-04-17 16:00:00,60.5,45.6,30.08,NNW,338,1.1,3.4,58,0.00,,,0.00,WUHU216HW,2013-04-17 23:00:00,
2013-04-17 16:05:00,60.1,44.8,30.08,WNW,303,2.2,3.4,57,0.00,,,0.00,WUHU216HW,2013-04-17 23:05:00,
2013-04-17 16:10:00,60.1,44.8,30.08,SW,225,3.6,3.6,57,0.00,,,0.00,WUHU216HW,2013-04-17 23:10:00,
2013-04-17 16:15:00,59.6,44.3,30.08,WNW,288,2.6,4.7,57,0.00,,,0.00,WUHU216HW,2013-04-17 23:15:00,
2013-04-17 16:20:00,59.4,44.7,30.07,West,279,2.0,4.7,58,0.00,,,0.00,WUHU216HW,2013-04-17 23:20:00,
2013-04-17 16:25:00,59.4,45.1,30.07,West,276,1.5,3.4,59,0.00,,,0.00,WUHU216HW,2013-04-17 23:25:00,
2013-04-17 16:30:00,59.6,44.7,30.07,WSW,250,1.1,3.4,58,0.00,,,0.00,WUHU216HW,2013-04-17 23:30:00,
2013-04-17 16:35:00,59.4,44.7,30.07,WSW,248,0.7,3.1,58,0.00,,,0.00,WUHU216HW,2013-04-17 23:35:00,
2013-04-17 16:40:00,59.6,44.7,30.07,WNW,302,1.2,3.1,58,0.00,,,0.00,WUHU216HW,2013-04-17 23:40:00,
2013-04-17 16:45:00,59.8,44.9,30.07,NNW,331,1.2,4.5,58,0.00,,,0.00,WUHU216HW,2013-04-17 23:45:00,
2013-04-17 16:50:00,59.8,44.9,30.07,West,260,0.6,4.5,58,0.00,,,0.00,WUHU216HW,2013-04-17 23:50:00,
2013-04-17 16:55:00,59.8,45.5,30.07,SW,225,2.5,2.5,59,0.00,,,0.00,WUHU216HW,2013-04-17 23:55:00,
2013-04-17 17:00:00,59.8,45.5,30.07,WSW,240,1.1,2.9,59,0.00,,,0.00,WUHU216HW,2013-04-18 00:00:00,
2013-04-17 17:05:00,59.8,45.5,30.07,SW,225,0.6,2.9,59,0.00,,,0.00,WUHU216HW,2013-04-18 00:05:00,
2013-04-17 17:10:00,59.6,45.3,30.07,WSW,239,0.9,1.6,59,0.00,,,0.00,WUHU216HW,2013-04-18 00:10:00,
2013-04-17 17:15:00,59.4,45.1,30.07,South,180,2.5,3.8,59,0.00,,,0.00,WUHU216HW,2013-04-18 00:15:00,
2013-04-17 17:20:00,59.0,44.7,30.07,WSW,238,1.2,3.8,59,0.00,,,0.00,WUHU216HW,2013-04-18 00:20:00,
2013-04-17 17:25:00,58.9,44.1,30.07,WSW,248,2.5,3.1,58,0.00,,,0.00,WUHU216HW,2013-04-18 00:25:00,
2013-04-17 17:30:00,58.7,44.4,30.07,WSW,248,3.1,3.1,59,0.00,,,0.00,WUHU216HW,2013-04-18 00:30:00,
2013-04-17 17:35:00,58.9,44.6,30.07,SE,135,1.1,3.1,59,0.00,,,0.00,WUHU216HW,2013-04-18 00:35:00,
2013-04-17 17:40:00,58.7,44.4,30.07,WSW,248,1.1,3.8,59,0.00,,,0.00,WUHU216HW,2013-04-18 00:40:00,
2013-04-17 17:45:00,58.7,44.4,30.07,WSW,248,1.6,3.8,59,0.00,,,0.00,WUHU216HW,2013-04-18 00:45:00,
2013-04-17 17:50:00,58.3,44.1,30.07,SW,215,1.4,2.5,59,0.00,,,0.00,WUHU216HW,2013-04-18 00:50:00,
2013-04-17 17:55:00,58.3,44.1,30.07,WSW,248,1.8,3.6,59,0.00,,,0.00,WUHU216HW,2013-04-18 00:55:00,
2013-04-17 18:00:00,58.1,43.9,30.07,WSW,248,0.4,3.6,59,0.00,,,0.00,WUHU216HW,2013-04-18 01:00:00,
2013-04-17 18:05:00,58.0,43.7,30.07,West,270,0.7,2.0,59,0.00,,,0.00,WUHU216HW,2013-04-18 01:05:00,
2013-04-17 18:10:00,58.0,44.2,30.07,WSW,248,0.9,2.0,60,0.00,,,0.00,WUHU216HW,2013-04-18 01:10:00,
2013-04-17 18:15:00,58.0,44.7,30.07,WSW,248,0.0,1.8,61,0.00,,,0.00,WUHU216HW,2013-04-18 01:15:00,
2013-04-17 18:20:00,57.8,44.5,30.07,West,270,0.7,2.0,61,0.00,,,0.00,WUHU216HW,2013-04-18 01:20:00,
2013-04-17 18:25:00,57.8,44.5,30.07,WSW,248,0.4,2.0,61,0.00,,,0.00,WUHU216HW,2013-04-18 01:25:00,
2013-04-17 18:30:00,57.8,44.5,30.07,WSW,248,1.8,1.8,61,0.00,,,0.00,WUHU216HW,2013-04-18 01:30:00,
2013-04-17 18:35:00,57.8,44.5,30.07,WSW,248,1.8,2.5,61,0.00,,,0.00,WUHU216HW,2013-04-18 01:35:00,
2013-04-17 18:40:00,57.6,44.3,30.07,WSW,248,2.5,3.4,61,0.00,,,0.00,WUHU216HW,2013-04-18 01:40:00,
2013-04-17 18:45:00,57.4,44.1,30.07,SW,225,2.0,3.4,61,0.00,,,0.00,WUHU216HW,2013-04-18 01:45:00,
2013-04-17 18:50:00,57.2,44.4,30.07,WSW,248,1.6,2.5,62,0.00,,,0.00,WUHU216HW,2013-04-18 01:50:00,
2013-04-17 18:55:00,57.1,44.2,30.07,SW,225,0.5,2.2,62,0.00,,,0.00,WUHU216HW,2013-04-18 01:55:00,
2013-04-17 19:00:00,57.1,44.2,30.07,SSW,210,1.0,2.2,62,0.00,,,0.00,WUHU216HW,2013-04-18 02:00:00,
2013-04-17 19:05:00,56.9,44.0,30.07,WSW,249,1.3,2.2,62,0.00,,,0.00,WUHU216HW,2013-04-18 02:05:00,
2013-04-17 19:10:00,56.9,44.0,30.07,WNW,295,0.5,2.2,62,0.00,,,0.00,WUHU216HW,2013-04-18 02:10:00,
2013-04-17 19:15:00,56.7,43.8,30.07,WSW,249,0.6,1.1,62,0.00,,,0.00,WUHU216HW,2013-04-18 02:15:00,
2013-04-17 19:20:00,56.5,44.0,30.07,SW,225,0.3,1.1,63,0.00,,,0.00,WUHU216HW,2013-04-18 02:20:00,
2013-04-17 19:25:00,56.3,43.5,30.07,WSW,248,1.3,1.8,62,0.00,,,0.00,WUHU216HW,2013-04-18 02:25:00,
2013-04-17 19:30:00,56.2,43.3,30.07,WSW,248,1.4,4.0,62,0.00,,,0.00,WUHU216HW,2013-04-18 02:30:00,
2013-04-17 19:35:00,56.0,42.8,30.07,West,271,1.3,4.0,61,0.00,,,0.00,WUHU216HW,2013-04-18 02:35:00,
2013-04-17 19:40:00,55.8,42.6,30.07,WSW,248,2.5,2.9,61,0.00,,,0.00,WUHU216HW,2013-04-18 02:40:00,
2013-04-17 19:45:00,55.6,42.4,30.07,WSW,247,0.5,2.5,61,0.00,,,0.00,WUHU216HW,2013-04-18 02:45:00,
2013-04-17 19:50:00,55.4,42.2,30.07,WSW,253,0.7,2.5,61,0.00,,,0.00,WUHU216HW,2013-04-18 02:50:00,
2013-04-17 19:55:00,55.1,41.9,30.07,WSW,244,1.2,2.5,61,0.00,,,0.00,WUHU216HW,2013-04-18 02:55:00,
2013-04-17 20:00:00,55.1,41.9,30.07,West,277,0.9,2.5,61,0.00,,,0.00,WUHU216HW,2013-04-18 03:00:00,
2013-04-17 20:05:00,54.7,41.5,30.07,NW,315,1.8,1.8,61,0.00,,,0.00,WUHU216HW,2013-04-18 03:05:00,
2013-04-17 20:10:00,54.5,41.3,30.07,West,270,0.9,1.8,61,0.00,,,0.00,WUHU216HW,2013-04-18 03:10:00,
2013-04-17 20:15:00,54.4,41.6,30.07,South,182,0.7,1.8,62,0.00,,,0.00,WUHU216HW,2013-04-18 03:15:00,
2013-04-17 20:20:00,54.0,41.2,30.07,SSW,210,0.6,1.3,62,0.00,,,0.00,WUHU216HW,2013-04-18 03:20:00,
2013-04-17 20:25:00,53.6,41.3,30.07,SSW,206,0.7,1.6,63,0.00,,,0.00,WUHU216HW,2013-04-18 03:25:00,
2013-04-17 20:30:00,53.5,41.1,30.07,SW,225,0.0,1.6,63,0.00,,,0.00,WUHU216HW,2013-04-18 03:30:00,
2013-04-17 20:35:00,53.3,41.4,30.07,SSW,203,0.0,0.2,64,0.00,,,0.00,WUHU216HW,2013-04-18 03:35:00,
2013-04-17 20:40:00,53.3,41.4,30.07,SSW,203,0.0,0.2,64,0.00,,,0.00,WUHU216HW,2013-04-18 03:40:00,
2013-04-17 20:45:00,53.1,41.2,30.07,SSW,203,0.3,0.4,64,0.00,,,0.00,WUHU216HW,2013-04-18 03:45:00,
2013-04-17 20:50:00,52.9,41.1,30.07,SW,225,0.2,1.1,64,0.00,,,0.00,WUHU216HW,2013-04-18 03:50:00,
2013-04-17 20:55:00,52.9,41.4,30.08,SW,225,0.0,1.1,65,0.00,,,0.00,WUHU216HW,2013-04-18 03:55:00,
2013-04-17 21:00:00,52.6,41.1,30.08,SW,225,0.0,0.0,65,0.00,,,0.00,WUHU216HW,2013-04-18 04:00:00,
2013-04-17 21:01:00,52.6,41.1,30.08,SW,225,0.0,0.0,65,0.00,,,0.00,WUHU216HW,2013-04-18 04:01:00,
2013-04-17 21:02:00,52.6,41.1,30.08,SW,225,0.0,0.0,65,0.00,,,0.00,WUHU216HW,2013-04-18 04:02:00,
2013-04-17 21:07:00,52.4,41.0,30.08,SW,225,0.0,0.0,65,0.00,,,0.00,WUHU216HW,2013-04-18 04:07:00,
2013-04-17 21:12:00,52.2,41.1,30.08,SW,225,0.0,0.0,66,0.00,,,0.00,WUHU216HW,2013-04-18 04:12:00,
2013-04-17 21:17:00,51.8,40.9,30.08,SW,225,0.0,0.0,66,0.00,,,0.00,WUHU216HW,2013-04-18 04:17:00,
2013-04-17 21:22:00,51.7,41.0,30.09,NW,315,0.5,1.1,67,0.00,,,0.00,WUHU216HW,2013-04-18 04:22:00,
2013-04-17 21:27:00,51.5,40.9,30.09,NNW,348,0.3,1.3,67,0.00,,,0.00,WUHU216HW,2013-04-18 04:27:00,
2013-04-17 21:32:00,51.5,41.3,30.09,North,0,0.0,1.3,68,0.00,,,0.00,WUHU216HW,2013-04-18 04:32:00,
2013-04-17 21:37:00,51.3,41.1,30.09,WSW,248,0.2,0.2,68,0.00,,,0.00,WUHU216HW,2013-04-18 04:37:00,
2013-04-17 21:42:00,51.3,41.1,30.09,WSW,248,0.0,0.2,68,0.00,,,0.00,WUHU216HW,2013-04-18 04:42:00,
2013-04-17 21:47:00,51.1,41.0,30.09,WSW,248,0.0,0.0,68,0.00,,,0.00,WUHU216HW,2013-04-18 04:47:00,
2013-04-17 21:52:00,51.1,41.0,30.09,WSW,248,0.0,0.0,68,0.00,,,0.00,WUHU216HW,2013-04-18 04:52:00,
2013-04-17 21:57:00,51.1,41.0,30.09,WSW,248,0.0,0.0,68,0.00,,,0.00,WUHU216HW,2013-04-18 04:57:00,
2013-04-17 22:02:00,51.1,41.0,30.09,WSW,248,0.0,0.0,68,0.00,,,0.00,WUHU216HW,2013-04-18 05:02:00,
2013-04-17 22:07:00,50.8,40.6,30.09,NNW,329,0.4,0.4,68,0.00,,,0.00,WUHU216HW,2013-04-18 05:07:00,
2013-04-17 22:12:00,50.8,41.1,30.09,NNW,338,0.3,0.4,69,0.00,,,0.00,WUHU216HW,2013-04-18 05:12:00,
2013-04-17 22:17:00,50.8,41.1,30.09,NNW,338,0.0,0.4,69,0.00,,,0.00,WUHU216HW,2013-04-18 05:17:00,
2013-04-17 22:22:00,50.6,40.9,30.09,NNW,338,0.2,0.4,69,0.00,,,0.00,WUHU216HW,2013-04-18 05:22:00,
2013-04-17 22:27:00,50.6,40.9,30.09,NNW,338,0.0,0.2,69,0.00,,,0.00,WUHU216HW,2013-04-18 05:27:00,
2013-04-17 22:32:00,50.4,40.7,30.08,ESE,113,0.4,0.9,69,0.00,,,0.00,WUHU216HW,2013-04-18 05:32:00,
2013-04-17 22:37:00,50.4,41.0,30.08,ESE,113,0.0,0.9,70,0.00,,,0.00,WUHU216HW,2013-04-18 05:37:00,
2013-04-17 22:42:00,50.4,41.0,30.08,ESE,113,0.0,0.0,70,0.00,,,0.00,WUHU216HW,2013-04-18 05:42:00,
2013-04-17 22:47:00,50.2,40.9,30.08,ESE,113,0.0,0.0,70,0.00,,,0.00,WUHU216HW,2013-04-18 05:47:00,
2013-04-17 22:52:00,50.0,40.7,30.08,ESE,113,0.0,0.0,70,0.00,,,0.00,WUHU216HW,2013-04-18 05:52:00,
2013-04-17 22:57:00,50.0,40.7,30.08,ESE,113,0.0,0.0,70,0.00,,,0.00,WUHU216HW,2013-04-18 05:57:00,
2013-04-17 23:02:00,50.0,41.1,30.08,ESE,113,0.0,0.0,71,0.00,,,0.00,WUHU216HW,2013-04-18 06:02:00,
2013-04-17 23:07:00,49.9,40.9,30.08,ESE,113,0.0,0.0,71,0.00,,,0.00,WUHU216HW,2013-04-18 06:07:00,
2013-04-17 23:12:00,49.9,41.2,30.08,ESE,113,0.0,0.0,72,0.00,,,0.00,WUHU216HW,2013-04-18 06:12:00,
2013-04-17 23:17:00,49.7,41.1,30.09,ESE,113,0.0,0.0,72,0.00,,,0.00,WUHU216HW,2013-04-18 06:17:00,
2013-04-17 23:22:00,49.7,41.1,30.08,ESE,113,0.0,0.0,72,0.00,,,0.00,WUHU216HW,2013-04-18 06:22:00,
2013-04-17 23:27:00,49.5,40.9,30.08,ESE,113,0.0,0.0,72,0.00,,,0.00,WUHU216HW,2013-04-18 06:27:00,
2013-04-17 23:32:00,49.5,40.9,30.08,ESE,113,0.0,0.0,72,0.00,,,0.00,WUHU216HW,2013-04-18 06:32:00,
2013-04-17 23:37:00,49.5,40.9,30.08,ESE,113,0.0,0.0,72,0.00,,,0.00,WUHU216HW,2013-04-18 06:37:00,
2013-04-17 23:42:00,49.5,40.9,30.08,ESE,113,0.0,0.0,72,0.00,,,0.00,WUHU216HW,2013-04-18 06:42:00,
2013-04-17 23:47:00,49.5,40.9,30.08,ESE,113,0.0,0.0,72,0.00,,,0.00,WUHU216HW,2013-04-18 06:47:00,
2013-04-17 23:52:00,49.5,41.1,30.08,ESE,113,0.0,0.0,73,0.00,,,0.00,WUHU216HW,2013-04-18 06:52:00,
2013-04-17 23:57:00,49.5,41.1,30.08,ESE,113,0.5,0.7,73,0.00,,,0.00,WUHU216HW,2013-04-18 06:57:00,